This demonstration page uses our WeatherBlox Daily Observations layout. Learn more.

Left ArrowRight Arrow

39.29038, -76.61219

Hourly Observations for February 5, 2021

Temp ( °F °C ) Dew Point ( °F °C ) Humidity (%) Winds ( mph kmh ) Pressure ( in mb ) Visibility ( mi km ) Precip ( " mm )
12:54 am 00:54 Cloudy 38 3.3 23 -5 55 55 VRB 3 6 29.81 1010 10 16 N/A
1:54 am 01:54 Cloudy 39 3.9 26 -3.3 60 60 S 5 7 29.78 1009 10 16 0.00 0.00
2:54 am 02:54 Cloudy 39 3.9 26 -3.3 60 60 VRB 5 7 29.75 1008 10 16 N/A
3:54 am 03:54 Cloudy 41 5 25 -3.9 53 53 S 7 11 29.72 1007 10 16 N/A
4:01 am 04:01 Cloudy 41 5 25 -3.9 53 53 S 5 7 29.74 1007 10 16 0.00 0.00
4:13 am 04:13 Cloudy 40 4.4 25 -3.9 55 55 S 7 11 29.74 1007 10 16 0.01 0.25
4:28 am 04:28 Cloudy with Light Wintry Mix 40 4.4 27 -2.8 60 60 SSW 6 9 29.74 1007 8 13 0.01 0.25
4:35 am 04:35 Cloudy 40 4.4 28 -2.2 63 63 SSW 12 19 29.74 1007 6 10 0.02 0.51
4:52 am 04:52 Cloudy 37 3 30 -1 75 75 SSW 6 9 29.74 1007 7 11 0.03 0.76
4:54 am 04:54 Cloudy 38 3.3 30 -1.1 73 73 SSW 6 9 29.72 1007 7 11 0.03 0.76
5:19 am 05:19 Cloudy 38 3.3 31 -0.6 76 76 S 5 7 29.71 1006 9 14 0.02 0.51
5:40 am 05:40 Cloudy with Light Rain 38 3.3 32 undefined 79 79 VRB 5 7 29.71 1006 8 13 0.05 1.27
5:54 am 05:54 Cloudy with Light Rain 37 2.8 32 undefined 82 82 VRB 3 6 29.69 1006 10 16 0.05 1.27
6:20 am 06:20 Cloudy 38 3.3 32 undefined 79 79 N N/A 29.71 1006 10 16 0.01 0.25
6:32 am 06:32 Cloudy with Light Rain 38 3.3 33 0.6 83 83 VRB 3 6 29.71 1006 9 14 0.02 0.51
6:54 am 06:54 Mostly Cloudy 38 3.3 33 0.6 83 83 SSW 3 6 29.70 1006 10 16 0.02 0.51
7:54 am 07:54 Mostly Cloudy 39 3.9 33 0.6 79 79 SSW 7 11 29.69 1006 10 16 N/A
8:54 am 08:54 Partly Cloudy 41 5 33 0.6 73 73 S 7 11 29.69 1005 10 16 N/A
9:54 am 09:54 Mostly Sunny 45 7.2 34 1.1 66 66 SW 8 13 29.67 1005 10 16 N/A
10:54 am 10:54 Partly Cloudy 48 8.9 34 1.1 58 58 SSW 9 15 29.67 1005 10 16 N/A
11:54 am 11:54 Partly Cloudy 50 10 35 1.7 57 57 SW 12 19 29.65 1004 10 16 N/A
12:54 pm 12:54 Mostly Sunny 52 11.1 34 1.1 50 50 SSW 8 13 29.64 1004 10 16 N/A
1:54 pm 13:54 Partly Cloudy 53 11.7 33 0.6 47 47 WSW 13 20 29.63 1003 10 16 N/A
2:54 pm 14:54 Partly Cloudy 55 12.8 30 -1.1 38 38 WSW 12 19 29.61 1003 10 16 N/A
3:54 pm 15:54 Mostly Cloudy 55 12.8 28 -2.2 35 35 WSW 13 20 29.61 1003 10 16 N/A
4:54 pm 16:54 Mostly Cloudy 52 11.1 28 -2.2 40 40 W 9 15 29.63 1004 10 16 N/A
5:54 pm 17:54 Partly Cloudy 47 8.3 25 -3.9 42 42 WNW 10 17 29.69 1005 10 16 N/A
6:54 pm 18:54 Mostly Clear 45 7.2 19 -7.2 35 35 W 15 24 29.72 1007 10 16 N/A
7:54 pm 19:54 Partly Cloudy 41 5 18 -7.8 39 39 WNW 7 11 29.73 1007 10 16 N/A
8:54 pm 20:54 Mostly Cloudy 42 5.6 18 -7.8 38 38 W 12 19 29.78 1009 10 16 N/A
9:54 pm 21:54 Mostly Cloudy 41 5 19 -7.2 41 41 WNW 20 31 29.83 1010 10 16 N/A
10:54 pm 22:54 Partly Cloudy 39 3.9 18 -7.8 43 43 WNW 14 22 29.85 1011 10 16 N/A
11:54 pm 23:54 Partly Cloudy 35 1.7 18 -7.8 50 50 WNW 6 9 29.85 1011 10 16 N/A

Powered by AerisWeather